Location: Sungai Anya
(2.6167°N, 114.0500°E)
Time: 18:11:38
(UTC+00:00)

Cosmos 1048 Rocket - Pass Details

Date: 19 October 2021
Orbit: 743 x 791 km, 74.0° (Epoch: 08 December)

Event Time Altitude Azimuth Distance (km) Brightness Sun altitude
Rises 10:33:41 0° 359° (N) 3,239 7.2 -6.6°
Reaches altitude 10° 10:36:10 10° 5° (N) 2,307 6.3 -7.2°
Maximum altitude 10:41:09 45° 77° (ENE) 1,033 4.3 -8.4°
Drops below altitude 10° 10:46:05 10° 149° (SSE) 2,284 6.3 -9.6°
Sets 10:48:31 0° 156° (SSE) 3,204 7.1 -10.2°
